[[{"header":{"parameterUnit":"m.s-1","parameterCategory":1,"la1":30.2991,"la2":30.254,"lo1":-89.0895,"lo2":-89.0444,"dy":0.0017,"dx":0.0017,"nx":28,"ny":28,"refTime":"2025-08-27T21:00:00:Z","depth":0,"parameterNumber":2,"parameterNumberName":"U-component_of_WINDS"},"data":[0,0,0,0,0,0,0,0,0,0,0,0,0,0,0,0,0,0,0,0,0,0,0,0,0,0,0,0,0,0,0,0,0,0,0,0,0,0,0,0,0,0,0,0,0,0,0,0,0,0,0,0,0,0,0,0,0,0,-4.3975,-4.3975,0,-4.3993,-4.3993,-4.3993,-4.3902,-4.3899,-4.3896,-4.3894,-4.3913,-4.3916,-4.3919,0,0,0,0,0,0,0,0,0,0,0,0,0,-4.3861,-4.3864,-4.3975,-4.3975,-4.3975,-4.3993,-4.3993,-4.3993,-4.3902,-4.3899,-4.3896,-4.3893,-4.3912,-4.3915,-4.3919,0,0,0,0,0,0,0,0,0,0,0,0,0,-4.3898,-4.3864,-4.3975,-4.3932,-4.3928,-4.3993,-4.3993,-4.3993,-4.3903,-4.3899,-4.3895,-4.3891,-4.3911,-4.3915,-4.3919,-4.4026,0,0,-4.3933,-4.3935,0,0,0,0,0,0,0,0,-4.3896,-4.3902,-4.3938,-4.3935,-4.3931,-4.3941,-4.396,-4.4004,-4.3904,-4.3913,-4.3894,-4.3889,-4.3925,-4.3928,-4.394,-4.4027,-4.4027,-4.3933,-4.3936,-4.3938,-4.3939,0,0,0,0,0,0,0,-4.3894,-4.3901,-4.3982,-4.3938,-4.3934,-4.3912,-4.3912,-4.3968,-4.3941,-4.3911,-4.3905,-4.3908,-4.3923,-4.3936,-4.394,-4.4028,-4.3933,-4.3937,-4.394,-4.3941,-4.4203,-4.4207,0,0,0,0,0,0,-4.3897,-4.3899,-4.3981,-4.3982,-4.3903,-4.3917,-4.3918,-4.3942,-4.394,-4.3936,-4.3912,-4.3904,-4.3931,-4.3935,-4.394,-4.4066,-4.3938,-4.3942,-4.3944,-4.4199,-4.4204,-4.4209,0,0,0,0,0,0,-4.3895,-4.3905,-4.398,-4.3939,-4.3947,-4.3923,-4.3951,-4.3944,-4.3958,-4.394,-4.3935,-4.3931,-4.3928,-4.3934,-4.4005,-4.4065,-4.3944,-4.3948,-4.4194,-4.42,-4.4206,-4.4318,0,0,0,0,0,0,-4.3892,-4.3905,-4.3945,-4.3941,-4.395,-4.4046,-4.3954,-4.3947,-4.3966,-4.3956,-4.3957,-4.3953,-4.3925,-4.3999,-4.401,-4.4069,-4.3951,-4.4188,-4.4197,-4.4204,-4.4309,-4.4327,-4.4343,0,0,0,0,0,-4.3888,-4.3976,-4.3948,-4.3958,-4.3999,-4.4049,-4.4054,-4.402,-4.3971,-4.4011,-4.4,-4.3953,-4.4057,-4.4007,-4.4018,-4.408,-4.4184,-4.4194,-4.4204,-4.4301,-4.4324,-4.4343,0,0,0,0,0,0,-4.3988,-4.3974,-4.3943,-4.4032,-4.4042,-4.4034,-4.4084,-4.4045,-4.407,-4.406,-4.4017,-4.4018,-4.4097,-4.4095,-4.404,-4.4183,-4.4112,-4.4124,-4.4182,-4.4203,-4.422,-4.422,-4.3955,0,0,0,0,0,-4.402,-4.4061,-4.4047,-4.4127,-4.4134,-4.4108,-4.4128,-4.4101,-4.4111,-4.4115,-4.4108,-4.4119,-4.4154,-4.4178,-4.4209,-4.4307,-4.4307,-4.4355,-4.4372,-4.4387,-4.4398,-4.4451,-4.4473,-4.424,-4.424,-4.424,0,0,-4.4087,-4.4085,-4.4114,-4.4147,-4.4152,-4.4196,-4.4112,-4.4162,-4.4195,-4.4122,-4.419,-4.4185,-4.4194,-4.428,-4.4317,-4.4281,-4.4462,-4.4399,-4.441,-4.4414,-4.4463,-4.4485,-4.4505,-4.4247,-4.4246,-4.4245,0,0,-4.4232,-4.4234,-4.4301,-4.4308,-4.4317,-4.4299,-4.4315,-4.4313,-4.4307,-4.4374,-4.432,-4.4358,-4.4419,-4.4428,-4.4441,-4.459,-4.4548,-4.4601,-4.4691,-4.4743,-4.4762,-4.4778,-4.4832,-4.4852,-4.4612,-4.4612,-4.4613,0,-4.4315,-4.438,-4.4341,-4.4395,-4.4411,-4.4347,-4.4415,-4.4423,-4.4442,-4.4455,-4.4414,-4.4489,-4.4491,-4.4578,-4.4615,-4.4626,-4.4644,-4.4601,-4.4762,-4.4778,-4.4792,-4.4844,-4.4864,-4.4619,-4.4618,-4.4617,-4.4617,0,-4.4481,-4.4527,-4.458,-4.46,-4.4622,-4.4683,-4.4653,-4.468,-4.4651,-4.4638,-4.4707,-4.4706,-4.4737,-4.4755,-4.4727,-4.4839,-4.4816,-4.4769,-4.4697,-4.4822,-4.4869,-4.4889,-4.4628,-4.4626,-4.4624,-4.4622,0,0,-4.4691,-4.4689,-4.4709,-4.4718,-4.4722,-4.4757,-4.4814,-4.4844,-4.4869,-4.4883,-4.4931,-4.4984,-4.4941,-4.4956,-4.4928,-4.4973,-4.5093,-4.492,-4.492,-4.4954,-4.5217,-4.5254,-4.5277,-4.5064,-4.5068,-4.507,-4.5217,0,-4.4835,-4.4934,-4.4901,-4.5001,-4.5044,-4.4983,-4.5033,-4.5042,-4.5031,-4.5065,-4.5052,-4.5091,-4.503,-4.5039,-4.508,-4.5069,-4.5145,-4.5058,-4.5109,-4.5112,-4.5111,-4.5302,-4.5341,-4.5479,-4.5235,-4.5238,-4.524,0,-4.5016,-4.5038,-4.5144,-4.5142,-4.5158,-4.5204,-4.5229,-4.5262,-4.527,-4.5259,-4.5275,-4.5238,-4.5294,-4.5221,-4.5299,-4.524,-4.5259,-4.5257,-4.5261,-4.5266,-4.5185,-4.5314,-4.5522,-4.5544,-4.5269,-4.5267,-4.5265,0,-4.5161,-4.5217,-4.5287,-4.5296,-4.5295,-4.5329,-4.533,-4.5335,-4.5355,-4.5376,-4.5389,-4.5417,-4.5433,-4.5455,-4.5426,-4.5375,-4.5509,-4.5433,-4.5502,-4.5503,-4.5535,-4.5534,-4.5751,-4.5544,-4.5544,-4.5544,-4.5543,0,-4.5326,-4.5393,-4.5353,-4.5396,-4.547,-4.543,-4.5504,-4.5498,-4.5503,-4.5544,-4.5492,-4.5533,-4.5491,-4.5528,-4.5505,-4.5574,-4.5581,-4.5574,-4.5568,-4.558,-4.5581,-4.5593,-4.5584,-4.5549,-4.5548,-4.5547,-4.5546,0,-4.5501,-4.5476,-4.5549,-4.5542,-4.5542,-4.5597,-4.5591,-4.5631,-4.5615,-4.5669,-4.5679,-4.5656,-4.5696,-4.5669,-4.5709,-4.5694,-4.5784,-4.5764,-4.5782,-4.5777,-4.5849,-4.5844,-4.6083,-4.6113,-4.5886,-4.5888,-4.589,0,-4.5609,-4.5659,-4.5658,-4.5682,-4.5687,-4.5726,-4.5746,-4.5709,-4.5732,-4.5746,-4.5785,-4.582,-4.5847,-4.5914,-4.5901,-4.5931,-4.5912,-4.5994,-4.5916,-4.5927,-4.5915,-4.5913,-4.5919,-4.601,-4.6013,-4.6015,-4.6017,0,-4.5804,-4.5789,-4.5821,-4.5848,-4.5874,-4.5894,-4.5909,-4.5932,-4.5894,-4.5923,-4.5964,-4.5985,-4.6025,-4.6062,-4.6087,-4.6088,-4.6047,-4.6041,-4.6059,-4.6073,-4.6082,-4.608,-4.5827,-4.6036,-4.6034,-4.6033,-4.6032,-4.6031,-4.595,-4.5992,-4.5998,-4.6035,-4.6042,-4.6058,-4.6096,-4.6085,-4.6118,-4.6149,-4.6125,-4.6173,-4.618,-4.621,-4.6216,-4.6254,-4.622,-4.6246,-4.6253,-4.6261,-4.6271,-4.6075,-4.6258,-4.6257,-4.6257,-4.6256,-4.6256,0,-4.6143,-4.6144,-4.6178,-4.6202,-4.6231,-4.6188,-4.6203,-4.6231,-4.6274,-4.6284,-4.6311,-4.6358,-4.6393,-4.6382,-4.6414,-4.6446,-4.6428,-4.6456,-4.6454,-4.6455,-4.6299,-4.6281,-4.647,-4.647,-4.647,-4.647,-4.647,-4.647,-4.6248,-4.6318,-4.6304,-4.6377,-4.6376,-4.6424,-4.6436,-4.645,-4.6458,-4.6513,-4.6542,-4.6534,-4.6536,-4.6567,-4.6597,-4.6593,-4.6608,-4.6643,-4.6633,-4.6487,-4.6466,-4.6446,-4.6429,-4.6646,-4.6647,-4.6786,-4.6787,-4.6788]},{"header":{"parameterUnit":"m.s-1","parameterCategory":1,"la1":30.2991,"la2":30.254,"lo1":-89.0895,"lo2":-89.0444,"dy":0.0017,"dx":0.0017,"nx":28,"ny":28,"refTime":"2025-08-27T21:00:00:Z","depth":0,"parameterNumber":3,"parameterNumberName":"V-component_of_WINDS"},"data":[0,0,0,0,0,0,0,0,0,0,0,0,0,0,0,0,0,0,0,0,0,0,0,0,0,0,0,0,0,0,0,0,0,0,0,0,0,0,0,0,0,0,0,0,0,0,0,0,0,0,0,0,0,0,0,0,0,0,-2.6092,-2.6092,0,-2.6094,-2.6094,-2.6094,-2.6054,-2.6052,-2.6051,-2.605,-2.6053,-2.6054,-2.6055,0,0,0,0,0,0,0,0,0,0,0,0,0,-2.6052,-2.6053,-2.6092,-2.6092,-2.6092,-2.6094,-2.6094,-2.6094,-2.6054,-2.6052,-2.6051,-2.605,-2.6053,-2.6054,-2.6055,0,0,0,0,0,0,0,0,0,0,0,0,0,-2.6064,-2.6054,-2.6092,-2.6072,-2.607,-2.6094,-2.6094,-2.6094,-2.6054,-2.6052,-2.6051,-2.6049,-2.6052,-2.6054,-2.6055,-2.6098,0,0,-2.606,-2.6061,0,0,0,0,0,0,0,0,-2.6063,-2.6065,-2.6075,-2.6073,-2.6072,-2.6072,-2.6081,-2.6095,-2.6054,-2.606,-2.605,-2.6048,-2.6061,-2.6061,-2.6065,-2.6098,-2.6098,-2.606,-2.6061,-2.6062,-2.6063,0,0,0,0,0,0,0,-2.6062,-2.6065,-2.6093,-2.6075,-2.6073,-2.6063,-2.6063,-2.6084,-2.607,-2.606,-2.6057,-2.6057,-2.6059,-2.6064,-2.6065,-2.6098,-2.606,-2.6062,-2.6063,-2.6064,-2.6165,-2.6167,0,0,0,0,0,0,-2.6064,-2.6064,-2.6093,-2.6093,-2.6063,-2.6065,-2.6065,-2.6073,-2.6069,-2.6067,-2.6059,-2.6056,-2.6062,-2.6063,-2.6065,-2.6114,-2.6062,-2.6064,-2.6065,-2.6163,-2.6165,-2.6167,0,0,0,0,0,0,-2.6064,-2.6067,-2.6093,-2.6078,-2.608,-2.6067,-2.6077,-2.6074,-2.6079,-2.6069,-2.6066,-2.6066,-2.6061,-2.6063,-2.609,-2.6114,-2.6064,-2.6066,-2.6161,-2.6164,-2.6166,-2.6213,0,0,0,0,0,0,-2.6063,-2.6067,-2.6084,-2.6078,-2.6081,-2.6118,-2.6079,-2.6076,-2.6082,-2.6077,-2.6075,-2.6073,-2.606,-2.6088,-2.6092,-2.6115,-2.6067,-2.6159,-2.6163,-2.6166,-2.6209,-2.6217,-2.6223,0,0,0,0,0,-2.6061,-2.6097,-2.6085,-2.6088,-2.6101,-2.6119,-2.6121,-2.6105,-2.6084,-2.61,-2.6093,-2.6073,-2.611,-2.6091,-2.6095,-2.6119,-2.6158,-2.6162,-2.6165,-2.6206,-2.6215,-2.6223,0,0,0,0,0,0,-2.6106,-2.6096,-2.6082,-2.6117,-2.6119,-2.6112,-2.6132,-2.6115,-2.6123,-2.6119,-2.6099,-2.6098,-2.6129,-2.6127,-2.6105,-2.616,-2.613,-2.6135,-2.616,-2.6169,-2.6176,-2.6175,-2.6069,0,0,0,0,0,-2.612,-2.6135,-2.6126,-2.6158,-2.6159,-2.6146,-2.6153,-2.614,-2.6141,-2.6142,-2.6137,-2.6139,-2.6151,-2.616,-2.6171,-2.6209,-2.6207,-2.6227,-2.6234,-2.624,-2.6245,-2.6263,-2.6272,-2.618,-2.618,-2.618,0,0,-2.6149,-2.6145,-2.6156,-2.6166,-2.6166,-2.6182,-2.6147,-2.6165,-2.6177,-2.6145,-2.617,-2.6167,-2.6167,-2.62,-2.6214,-2.6199,-2.6269,-2.6245,-2.625,-2.6251,-2.6268,-2.6277,-2.6285,-2.6183,-2.6182,-2.6182,0,0,-2.621,-2.6209,-2.6235,-2.6235,-2.6235,-2.6226,-2.6232,-2.6227,-2.6224,-2.6248,-2.6224,-2.6237,-2.6259,-2.626,-2.6264,-2.6323,-2.6305,-2.6327,-2.6364,-2.6383,-2.639,-2.6396,-2.6417,-2.6425,-2.6332,-2.6332,-2.6332,0,-2.6246,-2.6269,-2.625,-2.627,-2.6275,-2.6246,-2.6272,-2.6273,-2.6277,-2.6281,-2.6264,-2.6289,-2.6288,-2.632,-2.6334,-2.6338,-2.6344,-2.6328,-2.6391,-2.6397,-2.6402,-2.6422,-2.643,-2.6335,-2.6334,-2.6334,-2.6334,0,-2.6313,-2.6329,-2.635,-2.6353,-2.636,-2.6383,-2.6368,-2.6377,-2.6363,-2.6356,-2.638,-2.6378,-2.6387,-2.6393,-2.6381,-2.6423,-2.6414,-2.6394,-2.6364,-2.6414,-2.6432,-2.6439,-2.6339,-2.6338,-2.6337,-2.6336,0,0,-2.6403,-2.6395,-2.6403,-2.6403,-2.6401,-2.6413,-2.6434,-2.6442,-2.645,-2.6453,-2.647,-2.6488,-2.647,-2.6474,-2.646,-2.6477,-2.6523,-2.6455,-2.6455,-2.6467,-2.6569,-2.6584,-2.6593,-2.6511,-2.6512,-2.6513,-2.6569,0,-2.6462,-2.6497,-2.648,-2.6517,-2.6531,-2.6503,-2.6521,-2.6521,-2.6514,-2.6525,-2.6517,-2.653,-2.6505,-2.6507,-2.6522,-2.6515,-2.6543,-2.651,-2.6526,-2.6527,-2.6526,-2.6602,-2.6618,-2.667,-2.6576,-2.6577,-2.6578,0,-2.6535,-2.654,-2.6579,-2.6572,-2.6577,-2.6594,-2.6599,-2.661,-2.6609,-2.6603,-2.6607,-2.6589,-2.6609,-2.6579,-2.6605,-2.6583,-2.6589,-2.6586,-2.6587,-2.6588,-2.6555,-2.6604,-2.6687,-2.6695,-2.6589,-2.6588,-2.6587,0,-2.6596,-2.6613,-2.6638,-2.6639,-2.6632,-2.6644,-2.6642,-2.6639,-2.6645,-2.665,-2.6653,-2.666,-2.6664,-2.667,-2.6655,-2.6635,-2.6683,-2.6653,-2.6678,-2.6679,-2.669,-2.6689,-2.6774,-2.6694,-2.6694,-2.6694,-2.6694,0,-2.6663,-2.6688,-2.6665,-2.668,-2.6706,-2.6686,-2.6712,-2.6707,-2.6705,-2.6718,-2.6695,-2.6708,-2.6687,-2.6698,-2.6686,-2.671,-2.6712,-2.6707,-2.6703,-2.6709,-2.6709,-2.6712,-2.6708,-2.6696,-2.6695,-2.6695,-2.6695,0,-2.6736,-2.6722,-2.6747,-2.6737,-2.6736,-2.6755,-2.6747,-2.6761,-2.6751,-2.6768,-2.6771,-2.6757,-2.6769,-2.6754,-2.6765,-2.6757,-2.6788,-2.6779,-2.6788,-2.6786,-2.6812,-2.6809,-2.6901,-2.6912,-2.6825,-2.6826,-2.6827,0,-2.678,-2.6798,-2.679,-2.6797,-2.6796,-2.6807,-2.6812,-2.6793,-2.6799,-2.6799,-2.6812,-2.6822,-2.6828,-2.6848,-2.6839,-2.6846,-2.6837,-2.6869,-2.6838,-2.6843,-2.6837,-2.6836,-2.6837,-2.6875,-2.6876,-2.6877,-2.6878,0,-2.6859,-2.685,-2.6858,-2.6864,-2.687,-2.6874,-2.6876,-2.6883,-2.6862,-2.6871,-2.6882,-2.6887,-2.6896,-2.6906,-2.6911,-2.6908,-2.689,-2.6887,-2.6893,-2.6899,-2.6903,-2.6901,-2.6805,-2.6885,-2.6884,-2.6884,-2.6883,-2.6883,-2.6918,-2.6932,-2.6928,-2.6938,-2.6936,-2.6938,-2.695,-2.6942,-2.695,-2.6956,-2.6945,-2.6958,-2.6956,-2.696,-2.696,-2.697,-2.6957,-2.6966,-2.6968,-2.6971,-2.6975,-2.6902,-2.6971,-2.6971,-2.6971,-2.6971,-2.697,0,-2.6995,-2.6991,-2.6999,-2.7002,-2.7009,-2.699,-2.6991,-2.6998,-2.701,-2.7009,-2.7016,-2.7028,-2.7037,-2.7027,-2.7034,-2.7044,-2.7036,-2.7047,-2.7046,-2.7045,-2.6987,-2.698,-2.7054,-2.7054,-2.7053,-2.7053,-2.7053,-2.7053,-2.7036,-2.7058,-2.7049,-2.707,-2.7066,-2.7078,-2.708,-2.7082,-2.708,-2.7095,-2.7102,-2.7095,-2.7091,-2.7097,-2.7104,-2.7101,-2.7104,-2.7118,-2.7112,-2.7058,-2.705,-2.7042,-2.7036,-2.7119,-2.712,-2.717,-2.7171,-2.7171]}]]